JYH1059 ZPJH-WMKK

Flight info

Callsign JYH1059
Flight time N/A
Altitude 36000
Route GUKR9Y GUKRU A581 SAGAG B218 LPB B346 BKK/N0465F370 M757 KARMI Y507 RINBA/N0467F350 Y507 KAKAK KAKA3J
Aircraft B738/M-SABDE1FGHIJ1RWXYZ/LB1

Departure

Time 2026-05-05 10:00
Airport Xishuangbanna Gasa International Airport (ZPJH)

Arrival

Time N/A
Airport Kuala Lumpur International Airport (WMKK)
Time Latitude Longitude Altitude Speed Heading
2026-05-05 09:29 21.97443 100.76483 1852 ft 0 kts 71°
2026-05-05 09:51 21.97438 100.76469 1854 ft 4 kts 63°
2026-05-05 09:52 21.97423 100.76447 1853 ft 4 kts 35°
2026-05-05 09:52 21.97400 100.76437 1853 ft 4 kts 351°
2026-05-05 09:52 21.97392 100.76439 1852 ft 0 kts 340°
2026-05-05 09:55 21.97396 100.76437 1854 ft 4 kts 340°
2026-05-05 09:56 21.97471 100.76408 1852 ft 19 kts 340°
2026-05-05 09:56 21.97627 100.76350 1852 ft 26 kts 341°
2026-05-05 09:56 21.97789 100.76289 1852 ft 24 kts 341°
2026-05-05 09:56 21.97925 100.76230 1852 ft 9 kts 306°
2026-05-05 09:57 21.97909 100.76153 1855 ft 15 kts 251°
2026-05-05 09:57 21.97950 100.76061 1856 ft 15 kts 320°
2026-05-05 09:57 21.98041 100.76011 1856 ft 15 kts 341°
2026-05-05 09:57 21.98135 100.75976 1856 ft 14 kts 340°
2026-05-05 09:58 21.98252 100.75931 1855 ft 23 kts 340°
2026-05-05 09:58 21.98422 100.75884 1853 ft 18 kts
2026-05-05 09:58 21.98471 100.75867 1852 ft 2 kts 290°
2026-05-05 09:58 21.98449 100.75850 1852 ft 5 kts 165°
2026-05-05 09:59 21.98414 100.75864 1853 ft 6 kts 160°
2026-05-05 09:59 21.98302 100.75909 1855 ft 50 kts 159°
2026-05-05 09:59 21.97682 100.76147 1855 ft 136 kts 160°
2026-05-05 09:59 21.96593 100.76567 2156 ft 181 kts 161°
2026-05-05 10:00 21.95420 100.77005 3330 ft 177 kts 161°
2026-05-05 10:00 21.94280 100.77447 4455 ft 167 kts 161°
2026-05-05 10:00 21.93169 100.77879 5132 ft 181 kts 162°
2026-05-05 10:00 21.91909 100.78372 5561 ft 206 kts 162°
2026-05-05 10:01 21.90471 100.78940 5709 ft 236 kts 161°
2026-05-05 10:01 21.88865 100.79557 6028 ft 251 kts 162°
2026-05-05 10:01 21.87208 100.80190 6684 ft 254 kts 162°
2026-05-05 10:01 21.85538 100.80834 7362 ft 262 kts 162°
2026-05-05 10:02 21.83808 100.81530 8237 ft 270 kts 156°
2026-05-05 10:02 21.82378 100.82846 9132 ft 280 kts 124°
2026-05-05 10:02 21.81779 100.84835 9927 ft 286 kts 89°
2026-05-05 10:02 21.82084 100.86934 10787 ft 286 kts 71°
2026-05-05 10:03 21.82757 100.88961 11609 ft 291 kts 67°
2026-05-05 10:03 21.83504 100.91001 12425 ft 297 kts 67°
2026-05-05 10:03 21.84249 100.93093 13299 ft 302 kts 68°
2026-05-05 10:03 21.84988 100.95226 14114 ft 307 kts 68°
2026-05-05 10:04 21.85676 100.97428 14835 ft 318 kts 73°
2026-05-05 10:04 21.86203 100.99835 15092 ft 346 kts 77°
2026-05-05 10:04 21.86694 101.02459 15292 ft 372 kts 78°
2026-05-05 10:04 21.87211 101.05273 15458 ft 396 kts 78°
2026-05-05 10:05 21.87770 101.08248 15604 ft 416 kts 77°
2026-05-05 10:05 21.88370 101.11353 15822 ft 431 kts 77°
2026-05-05 10:05 21.88996 101.14527 16314 ft 436 kts 77°
2026-05-05 10:05 21.89631 101.17727 16897 ft 439 kts 77°
2026-05-05 10:06 21.90271 101.20946 17467 ft 442 kts 77°
2026-05-05 10:06 21.90742 101.24221 17945 ft 447 kts 89°
2026-05-05 10:06 21.90254 101.27520 18394 ft 450 kts 110°
2026-05-05 10:06 21.88835 101.30505 18879 ft 450 kts 127°
2026-05-05 10:07 21.86710 101.32943 19376 ft 447 kts 143°
2026-05-05 10:07 21.84056 101.34641 19797 ft 445 kts 159°
2026-05-05 10:07 21.81182 101.35888 20209 ft 448 kts 161°
2026-05-05 10:07 21.78271 101.37097 20574 ft 451 kts 161°
2026-05-05 10:08 21.75342 101.38305 20976 ft 454 kts 161°
2026-05-05 10:08 21.72392 101.39533 21374 ft 457 kts 161°
2026-05-05 10:08 21.69434 101.40780 21745 ft 459 kts 161°
2026-05-05 10:08 21.66459 101.42047 22090 ft 462 kts 161°
2026-05-05 10:09 21.63467 101.43330 22435 ft 465 kts 161°
2026-05-05 10:09 21.60461 101.44624 22787 ft 467 kts 160°
2026-05-05 10:09 21.57444 101.45923 23128 ft 469 kts 160°
2026-05-05 10:09 21.54409 101.47228 23424 ft 472 kts 161°
2026-05-05 10:10 21.51359 101.48539 23691 ft 474 kts 161°
2026-05-05 10:10 21.48294 101.49856 23938 ft 477 kts 161°
2026-05-05 10:10 21.45217 101.51176 24200 ft 478 kts 161°
2026-05-05 10:10 21.42132 101.52499 24452 ft 479 kts 161°
2026-05-05 10:11 21.39034 101.53828 24674 ft 482 kts 161°
2026-05-05 10:11 21.35919 101.55162 24884 ft 484 kts 160°
2026-05-05 10:11 21.32789 101.56503 25111 ft 486 kts 161°
2026-05-05 10:11 21.29649 101.57848 25352 ft 488 kts 161°
2026-05-05 10:12 21.26499 101.59196 25575 ft 489 kts 161°
2026-05-05 10:12 21.23337 101.60549 25798 ft 491 kts 161°
2026-05-05 10:12 21.20164 101.61905 26012 ft 493 kts 161°
2026-05-05 10:12 21.16981 101.63268 26228 ft 494 kts 161°
2026-05-05 10:13 21.13793 101.64642 26443 ft 496 kts 161°
2026-05-05 10:13 21.10596 101.66022 26637 ft 497 kts 160°
2026-05-05 10:13 21.07386 101.67410 26803 ft 500 kts 160°
2026-05-05 10:13 21.04165 101.68802 26989 ft 501 kts 160°
2026-05-05 10:14 21.00935 101.70196 27189 ft 502 kts 160°
2026-05-05 10:14 20.97698 101.71593 27379 ft 504 kts 160°
2026-05-05 10:14 20.94448 101.72993 27554 ft 505 kts 160°
2026-05-05 10:14 20.91195 101.74395 27763 ft 505 kts 160°
2026-05-05 10:15 20.87945 101.75794 28038 ft 504 kts 160°
2026-05-05 10:15 20.84701 101.77190 28333 ft 503 kts 160°
2026-05-05 10:15 20.81462 101.78583 28626 ft 503 kts 160°
2026-05-05 10:15 20.78226 101.79974 28917 ft 502 kts 160°
2026-05-05 10:16 20.74993 101.81363 29217 ft 501 kts 160°
2026-05-05 10:16 20.71766 101.82749 29525 ft 501 kts 160°
2026-05-05 10:16 20.68547 101.84131 29862 ft 500 kts 160°
2026-05-05 10:16 20.65330 101.85511 30163 ft 499 kts 161°
2026-05-05 10:17 20.62139 101.86879 30440 ft 498 kts 161°